Flag Weather past 2 weeks in Grand Island, Nebraska, U.S.A.

Now
40 °F

Clear.


Feels Like: 33 °F
Forecast: 26 / 38 °F
Wind: 12 mph from North

Location: Aurora Municipal Airport

Current Time: Nov 23, 2014 at 6:32:30 PM

Latest Report: Nov 23, 2014 at 5:55 PM


Visibility: 10 mi

Pressure: 29.60 "Hg

Humidity: 70%

Dew point: 31 °F

Location of Grand IslandLocation

Historic Weather in Grand Island — Graph

°F

Grand Island temperature yesterday

Maximum temperature yesterday: 55 °F (at 3:35 PM)
Minimum temperature yesterday: 35 °F (at 3:55 AM)
Average temperature yesterday: 43 °F

Past Weeks' High & Low Weather Summary

 TemperatureHumidityPressure
High68 °F (Nov 9, 3:15 PM)100% (Nov 22, 1:35 AM)30.59 "Hg (Nov 22, 1:35 AM)
Low-3 °F (Nov 16, 7:15 AM)25% (Nov 9, 2:15 PM)29.31 "Hg (Nov 10, 7:15 AM)
Average26 °F71%30.08 "Hg
* Reported Nov 8 5:15 PM — Nov 23 5:15 PM, Grand Island, Weather by CustomWeather, © 2014

Note: Actual official high and low records may vary slightly from our data, if they occured in-between our weather recording intervals... More about our weather records

Advertising

Grand Island weather history for previous 24 hours

 ConditionsComfort  
Time TempWeatherWind HumidityBarometerVisibility
5:15 PM
Nov 23
41 °FClear.14 mph67%29.59 "Hg10 mi
4:55 PM42 °FSunny.15 mph66%29.58 "Hg10 mi
4:35 PM42 °FSunny.15 mph67%29.58 "Hg10 mi
4:15 PM43 °FSunny.16 mph64%29.57 "Hg10 mi
3:55 PM43 °FSunny.16 mph65%29.57 "Hg10 mi
3:15 PM44 °FSunny.20 mph64%29.55 "Hg10 mi
2:15 PM42 °FOvercast.17 mph73%29.54 "Hg10 mi
1:55 PM42 °FOvercast.18 mph74%29.54 "Hg10 mi
1:35 PM42 °FOvercast.24 mph73%29.55 "Hg10 mi
1:15 PM42 °FOvercast.20 mph80%29.55 "Hg10 mi
12:55 PM42 °FMore clouds than sun.18 mph87%29.55 "Hg10 mi
12:35 PM41 °FCloudy.16 mph89%29.56 "Hg10 mi
12:15 PM40 °FLight rain. Mostly cloudy.20 mph89%29.57 "Hg10 mi
11:55 AM40 °FLight rain. Overcast.25 mph90%29.58 "Hg10 mi
11:35 AM40 °FLight rain. Overcast.18 mph91%29.59 "Hg10 mi
11:15 AM40 °FLight rain. More clouds than sun.24 mph90%29.59 "Hg10 mi
10:55 AM41 °FLight rain. Mostly cloudy.24 mph92%29.60 "Hg10 mi
10:35 AM41 °FRain. Overcast.20 mph91%29.61 "Hg10 mi
10:15 AM41 °FLight rain. Overcast.29 mph88%29.61 "Hg7 mi
9:55 AM42 °FRain. Mostly cloudy.25 mph86%29.61 "Hg10 mi
9:35 AM43 °FLight rain. More clouds than sun.20 mph83%29.60 "Hg10 mi
9:15 AM44 °FMostly cloudy.16 mph79%29.59 "Hg10 mi
8:55 AM44 °FMore clouds than sun.15 mph81%29.58 "Hg10 mi
8:15 AM44 °FOvercast.16 mph80%29.54 "Hg10 mi
7:55 AM44 °FPartly sunny.17 mph79%29.54 "Hg10 mi
7:15 AM46 °FClear.15 mph90%29.50 "Hg10 mi
6:55 AM46 °FPassing clouds.12 mph100%29.49 "Hg7 mi
6:15 AM46 °FFog.No wind100%29.46 "Hg2 mi
5:55 AM45 °FFog.No wind100%29.44 "Hg1 mi
5:15 AM46 °FFog.3 mph100%29.45 "Hg4 mi
4:55 AM46 °FClear.5 mph100%29.45 "Hg7 mi
4:15 AM49 °FClear.5 mph95%29.44 "Hg10 mi
3:55 AM51 °FClear.6 mph95%29.43 "Hg10 mi
3:35 AM51 °FClear.6 mph95%29.44 "Hg10 mi
3:15 AM51 °FClear.8 mph95%29.44 "Hg10 mi
2:55 AM52 °FPassing clouds.7 mph94%29.46 "Hg10 mi
2:35 AM53 °FPartly cloudy.8 mph92%29.47 "Hg10 mi
2:15 AM53 °FOvercast.7 mph92%29.48 "Hg10 mi
1:55 AM53 °FMostly cloudy.8 mph91%29.49 "Hg10 mi
1:15 AM54 °FOvercast.9 mph89%29.51 "Hg10 mi
12:55 AM54 °FOvercast.12 mph90%29.49 "Hg10 mi
12:15 AM54 °FPassing clouds.13 mph92%29.51 "Hg10 mi
11:55 PM
Nov 22
54 °FOvercast.14 mph91%29.51 "Hg10 mi
11:35 PM55 °FOvercast.15 mph92%29.52 "Hg10 mi
11:15 PM55 °FMostly cloudy.15 mph92%29.52 "Hg10 mi
10:55 PM54 °FLow clouds.16 mph94%29.53 "Hg10 mi
10:35 PM54 °FLow clouds.14 mph94%29.53 "Hg7 mi
10:15 PM54 °FLow clouds.16 mph94%29.54 "Hg10 mi
9:55 PM53 °FLow clouds.16 mph93%29.54 "Hg10 mi
9:35 PM53 °FLow clouds.16 mph93%29.55 "Hg10 mi
9:15 PM53 °FLow clouds.17 mph94%29.55 "Hg10 mi
8:55 PM51 °FLow clouds.12 mph97%29.55 "Hg7 mi
8:35 PM49 °FPassing clouds.10 mph98%29.55 "Hg10 mi
8:15 PM45 °FPassing clouds.7 mph95%29.56 "Hg10 mi
7:55 PM46 °FClear.9 mph90%29.56 "Hg10 mi
7:35 PM44 °FClear.8 mph86%29.57 "Hg10 mi
7:15 PM43 °FClear.9 mph81%29.56 "Hg10 mi
6:55 PM44 °FClear.8 mph76%29.57 "Hg10 mi
6:15 PM49 °FClear.6 mph68%29.56 "Hg10 mi
Weather by CustomWeather, © 2014

See weather overviewHow to use our weather pages